DELTA 1 DEB, 21754

Orbit data source: Space-Track

DELTA 1 DEB, 21754 is space debris in SSO originally from a launch on Thu, 12 Jun 1975 UTC launched from the Air Force Western Test Range (AFWTR). Debris objects in space refer to the collection of defunct objects orbiting the Earth. Examples of debris include non-operational satellites, rocket bodies, and fragments generated from explosions, collisions, or faulty payload assembly.

Loading next visibility...
Identifier
21754, 1975-052JQ
Orbit
SSO
Country
Flag of USUS
Related business
Manufacturer
Unknown
Mission
Spacecraft
Bus & Motor
Unknown
Mass
Unknown
Launch date (UTC)
1975-06-12 (51 years ago)
Launch vehicle
Unknown
Launch site
Air Force Western Test Range (AFWTR)
Object type
Payload
Rocket body
Debris
Shape & HBR
Unknown shape, 0.1 m
Radar Cross Section
Medium (>0.1 m² and <1 m²)

Expand to show TLE details & history
Last TLE update: 3 days ago

TLE from 3 days ago
0 DELTA 1 DEB
1 21754U 75052JQ  26170.29445407  .00000104  00000-0  28953-3 0  9994
2 21754 100.0508  94.3122 0075502 317.5587 193.9514 13.35324904697571
Epoch: 2026-06-19T07:04Z
TLE epoch observation values (Epoch: 2026-06-19T07:04:00.831Z)
Latitude
28.25905°
Longitude
-93.77758°
Altitude
1,185.114 km
Speed
7.237 km/s
True Right ascension
18h 39m 00s
True Declination
28° 07' 26"
Sunlit
Object was in full shadow at epoch
Visualization orbit readout
Latitude
Unknown
Longitude
Unknown
Altitude
Unknown
Speed
Unknown
Apparent Right ascension
Unknown
Apparent Declination
Unknown
Sunlit
N/A
Visualization observer readout
Local Sidereal Time
12:48:16
Azimuth
Unknown
Elevation
Unknown
Doppler factor
Unknown
Orbital elements
Apogee altitude
1,180.727 km
Perigee altitude
1,067.441 km
Semi-major axis
7,502.221 km
Eccentricity
0.00755
Inclination
100.0508°
RAAN
94.3122°
Arg. of periapsis
317.5587°
True anomaly
193.7447°
Mean anomaly
193.9514°
Eccentric anomaly
193.84786°
Mean motion
3.34009 °/min
Orbital period
107.78 mins
BSTAR
0.00028953
Loading maneuver chart data...
Computing Atmospheric mass density...

Documentation

Showing up to 5 results
|